Terminal Aerodrome Forecast
Issued by NWS Jackson, MS

Home | Current Version | Previous Version | Text Only | Print | Product List | Glossary On
Versions: 1 2 3 4 5 6 7 8 9 10 11 12 13 14
114
FTUS44 KJAN 261041 AAA
TAFGWO
TAF AMD
KGWO 261041Z 2611/2706 18005KT 5SM BR BKN006
     FM261400 20004KT 6SM BR BKN015 BKN250
     FM261600 21006KT P6SM FEW090 SCT250=

USA.gov is the U.S. government's official web portal to all federal, state and local government web resources and services.